Theta_e
342 342 341 342 340 340 340 340 339 339 339 339 339 341 343 345 351 349 348 349 348 349 349 350 351 350 349 350 351 352 351 351 352 351 352 352 350 349 347 348 348 348
342 343 346 343 343 345 345 342 341 340 341 342 342 342 342 346 345 348 347 347 348 348 350 349 349 350 350 349 350 350 350 351 351 352 352 351 350 348 348 349 350 352
341 342 342 342 341 341 343 345 346 345 344 345 346 346 345 348 347 348 347 346 346 346 348 348 349 350 349 349 350 350 349 349 348 351 353 351 352 350 349 347 349 349
342 342 342 342 343 343 344 345 346 348 350 349 349 350 351 350 351 350 352 355 351 351 354 355 353 351 349 348 348 347 346 345 346 347 347 347 349 349 347 347 347 347
342 343 344 344 346 348 348 346 347 348 349 350 350 354 356 357 357 357 355 351 347 344 342 342 342 343 345 345 345 343 342 341 343 345 344 344 346 347 346 344 340 341
342 345 347 347 348 349 349 349 350 352 354 355 355 360 359 357 353 346 342 340 337 335 334 333 333 333 334 334 335 335 334 334 334 337 339 342 342 344 344 340 339 338
340 343 345 349 350 350 350 352 354 358 354 353 357 353 351 346 341 339 336 334 332 332 330 329 329 329 330 330 331 330 331 332 332 331 331 333 336 338 340 340 339 336
346 346 348 350 351 352 354 354 353 359 359 353 349 346 342 338 336 334 332 331 330 328 328 327 328 328 327 328 327 327 327 328 329 330 329 330 333 331 334 335 337 338
347 350 351 351 352 352 353 357 356 355 352 348 344 340 337 335 332 331 330 329 328 327 327 326 327 326 326 326 326 325 325 325 326 326 326 326 327 328 329 330 331 331
348 350 351 352 353 356 356 354 351 349 348 344 340 336 333 333 331 329 329 328 326 326 326 326 326 325 325 325 325 325 324 323 323 323 323 323 324 324 326 326 327 327
350 353 354 355 354 353 350 348 347 347 345 340 337 334 333 332 331 330 328 328 326 326 325 326 326 326 325 325 325 325 324 322 322 322 322 322 323 323 325 324 325 324
353 354 353 352 350 348 346 346 346 343 339 337 334 332 331 330 330 329 328 326 326 326 326 326 327 326 325 325 325 324 323 322 322 322 322 322 322 323 323 323 323 323
353 352 351 349 347 345 345 344 342 340 337 334 333 331 330 329 328 327 327 326 326 326 325 325 326 326 326 326 325 324 322 321 320 321 321 321 322 322 322 322 322 322
352 350 347 345 344 343 342 341 338 336 334 332 331 329 328 327 326 325 325 325 324 324 325 325 325 326 326 326 326 324 322 320 320 321 320 321 321 322 322 322 322 323
348 346 346 344 342 340 339 338 336 334 332 331 330 329 327 326 325 324 323 323 323 323 323 324 324 325 326 325 325 325 323 320 320 320 320 320 321 321 321 322 322 322
345 344 341 340 339 337 336 335 333 331 329 328 327 327 326 326 325 324 323 322 321 321 322 322 323 325 328 328 328 326 324 321 320 320 320 320 320 320 321 322 322 322
341 340 339 337 337 336 335 333 332 330 329 328 327 327 326 326 323 323 322 322 321 320 321 321 323 325 326 325 325 327 327 323 320 320 321 321 321 320 320 321 322 323
339 338 336 335 335 334 334 333 332 330 329 327 326 326 325 324 322 322 322 321 320 320 320 322 323 325 323 324 324 324 326 324 320 319 320 321 321 321 321 322 323 323
337 336 335 334 333 332 332 331 330 329 328 327 326 326 324 323 322 322 321 321 320 320 321 322 322 324 322 322 322 323 325 323 319 320 321 321 322 322 323 323 324 324
335 334 333 332 330 329 329 328 327 326 327 327 326 325 324 323 323 322 322 322 322 321 321 321 322 324 322 321 321 322 324 322 319 320 320 321 322 323 324 324 325 324
334 333 331 329 328 327 326 325 325 325 325 325 324 324 323 323 323 323 324 324 322 321 321 320 320 323 321 320 320 321 322 321 319 320 321 322 323 324 325 325 326 325
332 331 329 327 326 325 324 323 324 324 324 325 324 323 323 323 323 323 322 322 322 321 318 318 319 323 320 319 319 320 321 319 320 321 322 323 323 325 326 327 327 325
331 329 327 326 324 323 323 323 323 323 323 324 322 322 322 322 322 323 324 323 323 322 320 318 319 322 319 318 318 320 321 319 320 322 323 323 324 325 326 327 328 328
330 328 326 325 324 323 323 323 323 323 324 324 321 320 320 321 321 321 321 321 321 320 322 318 319 322 318 316 316 318 320 318 320 322 322 322 324 326 326 326 328 331
329 327 326 324 323 323 323 322 322 323 323 322 321 320 320 321 321 318 318 319 320 320 322 319 319 320 319 315 315 316 320 319 320 321 321 321 323 325 326 326 327 328
328 327 325 324 323 323 323 323 323 321 320 319 319 319 319 320 320 317 316 317 317 316 316 318 320 319 320 314 313 314 317 321 318 319 319 321 322 324 323 324 325 326
Wind_Speed
9 8 8 8 8 8 8 7 7 7 6 6 6 6 5 5 4 4 5 5 7 7 8 8 7 8 9 8 8 7 8 8 7 6 6 5 5 6 7 7 8 8
10 9 7 7 6 5 6 6 6 6 6 5 5 5 5 4 6 5 6 7 6 7 7 7 7 6 6 6 6 6 6 5 5 4 4 4 4 4 6 6 7 6
9 8 9 9 9 8 7 6 5 6 5 4 4 4 6 4 6 5 5 6 6 6 4 4 4 5 5 5 4 4 5 6 6 5 4 5 4 3 3 3 4 4
9 9 9 9 8 7 6 5 5 4 3 4 5 5 5 5 5 5 4 4 4 5 6 7 7 6 7 8 8 8 8 8 8 6 7 7 6 4 4 4 4 4
10 9 8 7 6 4 3 5 4 3 4 4 5 4 4 4 3 4 5 6 6 6 7 7 8 8 8 8 8 7 7 7 8 7 8 8 7 5 4 4 5 6
7 6 6 6 4 3 4 4 4 4 4 5 3 3 3 5 6 7 7 7 7 7 8 7 8 8 8 8 7 7 7 6 7 7 7 6 5 4 2 3 5 6
8 6 5 3 3 4 4 4 4 4 3 2 6 6 6 7 7 7 7 7 8 7 8 7 8 8 7 6 7 7 6 6 6 6 7 5 4 4 4 5 6 8
3 2 4 5 5 5 5 4 2 1 4 6 7 6 7 8 8 7 7 7 7 8 7 7 7 7 7 6 7 6 6 5 5 5 4 3 2 2 3 4 6 7
3 4 5 6 6 5 4 3 5 5 5 7 7 7 7 7 7 7 7 7 8 8 7 7 7 7 7 7 7 7 6 6 5 5 4 4 4 3 3 4 5 6
5 5 6 5 5 4 6 6 6 6 7 8 8 7 8 7 7 7 7 7 8 8 7 7 7 7 8 7 7 7 7 6 6 6 5 5 4 4 4 4 4 4
6 6 6 6 6 6 8 7 7 7 7 8 7 8 7 6 6 7 8 7 7 7 7 7 7 7 7 7 6 6 6 6 6 5 5 4 4 4 5 4 5 5
7 7 7 8 8 8 8 8 7 8 8 7 7 8 7 7 7 7 7 8 7 7 7 6 6 6 6 6 6 6 6 6 6 6 6 5 5 5 5 5 4 5
7 7 8 8 9 8 7 7 8 8 8 8 7 7 7 7 7 8 7 7 7 7 7 6 5 5 5 6 5 5 5 6 5 5 5 4 4 5 4 4 4 4
7 8 9 9 9 8 8 8 8 8 8 7 7 8 8 7 7 7 7 7 7 7 6 6 5 6 7 6 4 3 4 5 5 5 5 5 5 5 5 4 4 4
8 8 8 10 9 9 9 9 9 8 8 7 8 7 7 7 7 7 7 7 6 6 6 6 5 6 6 7 7 5 4 6 5 5 5 6 6 6 5 5 5 5
10 9 9 10 9 9 9 9 9 8 8 8 8 8 7 6 7 7 7 6 6 6 5 4 4 4 10 13 11 8 4 4 4 5 5 7 7 8 8 7 6 5
10 10 10 10 9 9 9 9 9 8 8 8 8 7 7 6 6 7 6 6 5 4 4 3 3 6 14 13 12 12 6 3 4 4 5 6 7 7 7 8 8 8
10 11 10 9 9 9 9 9 9 9 8 8 8 7 6 6 6 6 5 4 3 3 2 3 5 12 12 12 11 11 9 5 3 4 6 6 7 8 7 8 9 9
11 12 11 9 9 9 9 8 8 9 8 8 7 6 6 7 6 5 4 2 2 2 5 6 4 10 10 11 10 10 10 7 4 4 4 7 8 8 8 9 8 8
11 12 10 10 9 9 9 9 9 8 7 6 7 6 6 6 5 4 3 2 3 5 4 4 3 9 10 11 11 11 11 8 4 4 4 6 7 8 8 9 9 8
12 12 11 10 10 11 11 9 9 8 7 6 6 6 7 6 5 4 3 3 4 4 2 3 3 9 9 11 11 10 10 7 4 4 4 6 7 7 8 9 9 7
12 12 11 10 11 11 11 9 8 8 8 7 7 7 6 5 3 3 4 5 3 2 2 3 3 9 10 11 11 9 8 5 4 5 6 8 8 8 7 5 6 5
12 13 11 12 11 11 10 9 9 7 6 6 7 6 5 4 4 4 3 2 2 2 3 4 4 8 10 11 10 10 6 5 5 5 5 7 8 8 7 7 8 6
11 12 13 11 11 11 9 8 7 6 6 5 7 5 5 4 4 4 3 2 3 4 4 4 5 8 13 12 10 10 6 5 5 5 5 5 5 6 6 8 10 19
11 11 12 11 11 9 8 8 7 6 6 5 5 4 5 4 3 4 2 2 3 4 7 6 5 7 12 12 11 10 7 4 4 5 5 6 5 6 6 6 7 10
9 10 10 11 11 9 8 8 7 7 7 6 5 4 4 4 3 2 4 4 4 4 5 5 6 6 8 12 11 10 9 4 4 5 6 6 6 6 7 7 8 7
Wind_Direction
209 205 214 215 221 222 231 236 238 240 248 254 255 269 277 292 307 294 270 256 247 248 252 250 252 254 258 261 260 264 268 274 281 285 276 273 261 250 252 243 237 240
210 208 214 217 230 231 234 234 244 237 250 251 264 283 283 280 268 251 260 260 257 254 258 264 269 273 279 280 284 282 287 301 309 349 300 296 275 258 255 257 255 267
211 210 212 216 221 227 230 230 232 246 259 271 263 249 258 238 259 255 257 266 276 291 316 329 346 353 351 343 342 6 24 31 25 5 38 35 28 32 19 359 351 3
212 212 215 221 221 227 223 228 239 242 255 260 253 251 253 266 271 289 310 335 358 30 33 38 36 35 33 36 48 55 50 47 38 41 50 45 40 43 31 4 3 6
210 211 215 218 219 212 207 227 245 242 241 253 259 263 271 293 351 26 36 44 40 41 39 37 36 37 35 41 43 49 40 39 33 44 55 52 43 45 29 17 357 336
210 208 208 210 201 181 206 228 230 229 244 263 313 17 39 50 53 50 47 51 47 45 44 40 39 38 37 40 45 47 44 42 31 35 44 41 40 15 5 339 313 300
208 195 188 144 142 165 195 214 218 227 259 42 58 45 52 59 62 61 60 62 58 53 49 45 41 40 37 40 46 47 46 46 37 34 38 40 18 13 345 324 310 304
188 104 129 145 154 170 190 202 202 61 88 79 74 64 65 70 69 68 67 65 66 57 53 50 47 45 39 40 42 38 38 36 34 35 42 21 51 26 347 335 322 313
120 130 135 151 163 176 164 111 91 88 90 92 86 81 72 73 77 76 72 70 67 57 51 47 41 40 35 35 34 30 26 24 22 17 20 18 12 8 350 341 327 323
134 138 138 146 146 127 102 95 94 87 85 86 90 85 84 79 76 77 73 68 67 60 52 47 40 34 31 28 25 19 15 10 12 15 20 16 11 360 354 352 338 331
145 142 137 126 107 102 100 98 93 91 84 88 92 88 88 89 79 72 69 63 63 58 53 46 38 32 26 23 18 15 9 4 5 8 12 9 6 360 3 352 350 342
145 140 129 118 111 105 105 99 96 93 96 92 94 97 88 77 77 69 69 68 62 56 51 43 35 29 26 17 11 9 8 7 7 5 6 3 2 359 353 353 347 342
143 132 124 117 113 109 104 99 97 99 97 95 93 90 88 83 76 76 67 66 58 50 42 32 23 22 21 13 9 13 9 6 359 2 2 358 355 353 349 347 341 335
125 119 116 113 112 108 103 101 100 97 93 94 89 83 79 79 76 75 71 62 53 47 35 28 17 23 20 13 2 11 14 7 358 355 354 351 350 347 345 337 332 326
117 112 112 112 111 109 106 103 100 97 95 89 87 86 82 79 77 75 72 63 49 42 31 20 17 19 17 15 10 16 28 7 352 354 351 351 346 341 337 334 333 331
120 118 117 116 112 109 108 106 101 99 95 90 86 83 84 80 77 71 66 58 50 36 27 12 2 13 20 16 17 12 28 7 352 349 350 355 352 346 345 342 337 327
122 123 120 115 115 110 109 105 102 101 97 93 87 83 82 85 79 73 63 56 50 38 25 12 332 18 10 8 7 5 16 16 350 338 351 359 355 347 345 344 343 343
127 125 120 118 115 110 107 106 104 100 96 93 95 93 91 88 78 74 72 63 56 42 22 12 17 17 3 2 359 359 6 17 355 354 1 2 358 356 353 348 350 355
131 127 123 119 114 112 110 107 103 99 99 103 103 109 102 89 90 87 88 72 52 41 33 20 348 13 1 0 359 359 6 22 8 355 355 8 5 2 358 360 0 2
131 127 121 117 116 113 111 108 105 104 107 108 112 107 97 97 102 103 101 84 54 42 26 356 317 5 357 3 5 4 14 26 3 359 356 9 10 8 5 6 6 6
130 125 119 118 117 115 112 110 111 113 109 111 111 107 111 116 123 114 96 70 47 31 5 0 335 10 4 9 9 5 12 22 1 7 7 13 14 8 7 4 5 7
129 123 119 120 120 118 116 115 116 118 119 117 105 108 110 117 114 107 83 64 48 25 353 3 339 18 16 17 15 4 17 18 10 11 19 25 21 14 6 353 3 20
130 126 125 125 125 122 119 119 118 113 107 105 102 102 112 105 103 79 63 42 11 351 28 10 356 17 25 24 17 11 21 17 10 10 20 28 29 22 11 8 11 33
132 130 128 127 125 121 116 109 103 100 100 104 111 121 111 105 90 74 47 27 37 23 42 25 354 10 24 24 22 15 26 14 351 12 20 12 360 23 19 22 13 20
128 125 124 122 116 111 111 111 109 105 100 97 98 102 100 103 90 77 83 34 38 36 42 43 12 13 20 17 21 18 19 9 5 15 10 5 1 12 16 19 18 12
118 115 114 116 115 109 105 107 105 99 100 101 92 83 92 73 93 101 82 51 28 36 35 20 28 17 17 14 19 20 16 27 4 18 1 354 4 20 9 15 18 10